Weather History for KGNC - October, 2012

Change the Weather History Date:

Sunday, October 21, 2012

  Actual Average (KHOB) Record (KHOB)
Temperature  
Mean Temperature 74 °F -  
Max Temperature 89 °F 72 °F 93 °F (2001)
Min Temperature 59 °F 47 °F 33 °F (1996)
Cooling Degree Days 9    
Growing Degree Days 24 (Base 50)    
Moisture  
Dew Point 42 °F    
Average Humidity 42    
Maximum Humidity 84    
Minimum Humidity 10    
Precipitation  
Precipitation 0.00 in - - ()
Sea Level Pressure  
Sea Level Pressure 29.89 in    
Wind  
Wind Speed 9 mph (SW)    
Max Wind Speed 18 mph    
Max Gust Speed 25 mph    
Visibility 10 miles    
Events      
Averages and records for this station are not official NWS values.
T = Trace of Precipitation, MM = Missing Value Source: NWS Daily Summary

Daily Weather History Graph

Daily Weather History Graph

Search for Another Location

Airport or City:

Trip Planner

Search our weather history database for the weather conditions in past years. The results will help you decide how hot, cold, wet, or windy it might be!

Date:

Astronomy

Oct. 21, 2012 Rise Set
Actual Time 7:59 AM CDT 7:10 PM CDT
Civil Twilight 7:34 AM CDT 7:35 PM CDT
Nautical Twilight 7:05 AM CDT 8:03 PM CDT
Astronomical Twilight 6:37 AM CDT 8:32 PM CDT
Moon 2:15 PM CDT (10/21) 12:08 AM CDT (10/21)
Length of Visible Light 12h 00m
Length of Day
11h 10m
Waxing Crescent, 45% of the Moon is Illuminated
Oct 21
Waxing Crescent
Oct 21
First Quarter
Oct 29
Full
Nov 6
Last Quarter
Nov 13
New

Hourly Weather History & Observations

Time (CDT) Temp. Dew Point Humidity Pressure Visibility Wind Dir Wind Speed Gust Speed Precip Events Conditions
12:15 AM 65.7 °F 47.8 °F 53% 29.85 in 10.0 mi SSW 8.1 mph - N/A   Clear
12:35 AM 64.2 °F 48.2 °F 56% 29.85 in 10.0 mi SW 8.1 mph - N/A   Clear
12:55 AM 62.8 °F 48.0 °F 59% 29.85 in 10.0 mi SW 6.9 mph - N/A   Clear
1:15 AM 61.3 °F 46.9 °F 59% 29.84 in 10.0 mi SW 6.9 mph - N/A   Clear
1:35 AM 61.0 °F 47.5 °F 61% 29.84 in 10.0 mi SW 8.1 mph - N/A   Clear
1:55 AM 60.8 °F 48.6 °F 64% 29.84 in 10.0 mi SW 5.8 mph - N/A   Clear
2:15 AM 60.1 °F 49.5 °F 68% 29.85 in 10.0 mi SSW 5.8 mph - N/A   Clear
2:35 AM 59.5 °F 50.5 °F 72% 29.85 in 10.0 mi SSW 6.9 mph - N/A   Clear
2:55 AM 62.2 °F 53.1 °F 72% 29.85 in 10.0 mi SW 9.2 mph - N/A   Clear
3:15 AM 64.0 °F 54.3 °F 71% 29.85 in 10.0 mi SW 8.1 mph - N/A   Clear
3:35 AM 63.5 °F 54.7 °F 73% 29.85 in 10.0 mi SW 8.1 mph - N/A   Clear
3:55 AM 62.4 °F 54.5 °F 75% 29.85 in 10.0 mi SW 8.1 mph - N/A   Clear
4:15 AM 62.4 °F 55.0 °F 77% 29.85 in 10.0 mi WSW 6.9 mph - N/A   Clear
4:35 AM 61.7 °F 54.9 °F 78% 29.85 in 10.0 mi SW 6.9 mph - N/A   Clear
4:55 AM 61.2 °F 55.0 °F 80% 29.85 in 10.0 mi SW 5.8 mph - N/A   Clear
5:15 AM 60.6 °F 55.0 °F 82% 29.85 in 10.0 mi WSW 5.8 mph - N/A   Clear
5:35 AM 61.0 °F 55.4 °F 82% 29.85 in 10.0 mi WSW 6.9 mph - N/A   Clear
5:55 AM 62.8 °F 55.6 °F 77% 29.86 in 10.0 mi SW 11.5 mph - N/A   Clear
6:15 AM 63.7 °F 55.6 °F 75% 29.86 in 10.0 mi WSW 9.2 mph - N/A   Clear
6:35 AM 62.6 °F 55.4 °F 77% 29.87 in 10.0 mi SW 8.1 mph - N/A   Clear
6:55 AM 62.2 °F 55.4 °F 78% 29.87 in 10.0 mi SW 8.1 mph - N/A   Clear
7:15 AM 61.3 °F 55.0 °F 80% 29.87 in 10.0 mi SW 8.1 mph - N/A   Clear
7:35 AM 60.6 °F 54.5 °F 80% 29.88 in 10.0 mi SW 8.1 mph - N/A   Clear
7:55 AM 60.3 °F 54.7 °F 82% 29.89 in 10.0 mi WSW 8.1 mph - N/A   Clear
8:15 AM 59.0 °F 54.3 °F 84% 29.89 in 10.0 mi WSW 6.9 mph - N/A   Clear
8:35 AM 59.0 °F 54.0 °F 83% 29.90 in 10.0 mi WSW 6.9 mph - N/A   Clear
8:55 AM 61.2 °F 53.6 °F 76% 29.91 in 10.0 mi WSW 8.1 mph - N/A   Clear
9:15 AM 64.4 °F 52.5 °F 65% 29.92 in 10.0 mi WSW 9.2 mph - N/A   Clear
9:35 AM 66.9 °F 51.1 °F 57% 29.93 in 10.0 mi WSW 10.4 mph - N/A   Clear
9:55 AM 69.8 °F 49.5 °F 48% 29.93 in 10.0 mi West 12.7 mph - N/A   Clear
10:15 AM 72.5 °F 45.9 °F 39% 29.94 in 10.0 mi WSW 11.5 mph - N/A   Clear
10:35 AM 74.8 °F 45.0 °F 34% 29.94 in 10.0 mi West 11.5 mph 16.1 mph N/A   Clear
10:55 AM 77.7 °F 42.8 °F 29% 29.94 in 10.0 mi West 12.7 mph 20.7 mph N/A   Clear
11:15 AM 80.8 °F 40.8 °F 24% 29.94 in 10.0 mi West 13.8 mph 18.4 mph N/A   Clear
11:35 AM 81.9 °F 40.1 °F 23% 29.94 in 10.0 mi West 12.7 mph 17.3 mph N/A   Clear
11:55 AM 83.3 °F 38.1 °F 20% 29.94 in 10.0 mi WNW 15.0 mph 20.7 mph N/A   Clear
12:15 PM 84.4 °F 36.1 °F 18% 29.94 in 10.0 mi West 13.8 mph - N/A   Clear
12:35 PM 85.3 °F 34.9 °F 17% 29.94 in 10.0 mi West 13.8 mph - N/A   Clear
12:55 PM 85.8 °F 35.1 °F 16% 29.94 in 10.0 mi West 13.8 mph - N/A   Clear
1:15 PM 86.0 °F 34.5 °F 16% 29.93 in 10.0 mi West 10.4 mph 18.4 mph N/A   Clear
1:35 PM 86.7 °F 33.3 °F 15% 29.93 in 10.0 mi West 13.8 mph 19.6 mph N/A   Clear
1:55 PM 87.4 °F 32.0 °F 14% 29.91 in 10.0 mi West 11.5 mph 20.7 mph N/A   Clear
2:15 PM 87.8 °F 30.9 °F 13% 29.90 in 10.0 mi WSW 11.5 mph 19.6 mph N/A   Clear
2:35 PM 88.0 °F 31.8 °F 13% 29.89 in 10.0 mi WSW 15.0 mph 20.7 mph N/A   Clear
2:55 PM 88.3 °F 30.9 °F 13% 29.89 in 10.0 mi WSW 16.1 mph 24.2 mph N/A   Clear
3:15 PM 88.7 °F 31.6 °F 13% 29.89 in 10.0 mi WSW 15.0 mph 25.3 mph N/A   Clear
3:35 PM 88.3 °F 32.0 °F 13% 29.89 in 10.0 mi WSW 12.7 mph 23.0 mph N/A   Clear
3:55 PM 88.2 °F 33.3 °F 14% 29.88 in 10.0 mi WSW 18.4 mph 21.9 mph N/A   Clear
4:15 PM 88.7 °F 32.0 °F 13% 29.87 in 10.0 mi West 12.7 mph 20.7 mph N/A   Clear
4:35 PM 89.1 °F 28.9 °F 12% 29.87 in 10.0 mi WSW 16.1 mph 21.9 mph N/A   Clear
4:55 PM 89.1 °F 26.1 °F 10% 29.88 in 10.0 mi WSW 15.0 mph 25.3 mph N/A   Clear
5:15 PM 89.4 °F 26.8 °F 10% 29.88 in 10.0 mi WSW 16.1 mph 21.9 mph N/A   Clear
5:35 PM 88.5 °F 29.7 °F 12% 29.88 in 10.0 mi SW 13.8 mph 24.2 mph N/A   Clear
5:55 PM 88.5 °F 31.1 °F 13% 29.88 in 10.0 mi SW 15.0 mph 24.2 mph N/A   Clear
6:15 PM 86.9 °F 30.4 °F 13% 29.87 in 10.0 mi SW 12.7 mph - N/A   Clear
6:35 PM 84.0 °F 31.1 °F 15% 29.88 in 10.0 mi SW 11.5 mph - N/A   Clear
6:55 PM 82.0 °F 32.0 °F 16% 29.88 in 10.0 mi SW 6.9 mph - N/A   Clear
7:15 PM 79.9 °F 32.5 °F 18% 29.88 in 10.0 mi SSW 8.1 mph - N/A   Clear
7:35 PM 77.5 °F 33.3 °F 20% 29.89 in 10.0 mi SSW 6.9 mph - N/A   Clear
7:55 PM 75.0 °F 34.2 °F 23% 29.89 in 10.0 mi SSW 8.1 mph - N/A   Clear
8:15 PM 74.7 °F 35.4 °F 24% 29.89 in 10.0 mi SSW 8.1 mph - N/A   Clear
8:35 PM 73.6 °F 36.1 °F 26% 29.89 in 10.0 mi SW 6.9 mph - N/A   Clear
8:55 PM 72.5 °F 36.7 °F 27% 29.89 in 10.0 mi SSW 6.9 mph - N/A   Clear
9:15 PM 70.2 °F 37.4 °F 30% 29.90 in 10.0 mi SSW 8.1 mph - N/A   Clear
9:35 PM 70.5 °F 38.1 °F 31% 29.91 in 10.0 mi South 8.1 mph - N/A   Clear
9:55 PM 69.3 °F 38.5 °F 32% 29.91 in 10.0 mi SW 8.1 mph - N/A   Clear
10:15 PM 69.1 °F 38.3 °F 32% 29.92 in 10.0 mi SSW 5.8 mph - N/A   Clear
10:35 PM 68.7 °F 38.3 °F 33% 29.91 in 10.0 mi SW 6.9 mph - N/A   Clear
10:55 PM 68.7 °F 38.7 °F 33% 29.92 in 10.0 mi SW 8.1 mph - N/A   Clear
11:15 PM 69.3 °F 38.7 °F 33% 29.92 in 10.0 mi SW 9.2 mph - N/A   Clear
11:35 PM 69.3 °F 38.8 °F 33% 29.93 in 10.0 mi WSW 9.2 mph - N/A   Clear
11:55 PM 69.3 °F 39.4 °F 34% 29.94 in 10.0 mi SW 11.5 mph - N/A   Clear